Flag for Switzerland Weather past 2 weeks in Binningen, Basel-Land, Switzerland

Now
58 °F

Overcast.


Feels Like: 58 °F
Forecast: 58 / 71 °F
Wind: No wind

Location: Bale-Mulhouse

Current Time: Aug 28, 2014 at 3:19:24 AM

Latest Report: Aug 28, 2014 at 2:00 AM


Visibility: 25 mi

Pressure: 30.06 "Hg

Humidity: 95%

Dew point: 57 °F

Location of BinningenLocation

Historic Weather in Binningen — Graph

°F

Binningen temperature yesterday

Maximum temperature yesterday: 72 °F (at 4:00 PM)
Minimum temperature yesterday: 59 °F (at 3:00 AM)
Average temperature yesterday: 64 °F

Past Weeks' High & Low Weather Summary

 TemperatureHumidityPressure
High73 °F (Aug 26, 5:00 PM)98% (Aug 17, 6:00 AM)30.20 "Hg (Aug 17, 6:00 AM)
Low46 °F (Aug 25, 2:00 AM)41% (Aug 22, 2:00 PM)29.67 "Hg (Aug 13, 9:00 AM)
Average60 °F77%30.00 "Hg
* Reported Aug 13 2:00 AM — Aug 28 2:00 AM, Binningen, Weather by CustomWeather, © 2014

Note: Actual official high and low records may vary slightly from our data, if they occured in-between our weather recording intervals... More about our weather records

Advertising

Binningen weather history for previous 24 hours

 ConditionsComfort  
Time TempWeatherWind HumidityBarometerVisibility
2:00 AM
Aug 28
58 °FOvercast.No wind95%30.06 "Hg25 mi
1:00 AM58 °FOvercast.2 mph96%30.06 "Hg25 mi
12:00 AM58 °FOvercast.3 mph94%30.06 "Hg16 mi
11:00 PM
Aug 27
59 °FOvercast.1 mph93%30.05 "Hg19 mi
10:00 PM60 °FPassing clouds.5 mph92%30.05 "Hg19 mi
9:00 PM61 °FOvercast.3 mph88%30.03 "Hg19 mi
8:00 PM65 °FOvercast.3 mph84%30.01 "Hg19 mi
7:00 PM69 °FPartly sunny.3 mph66%30.00 "Hg19 mi
6:00 PM70 °FPartly sunny.5 mph66%30.00 "Hg19 mi
5:00 PM70 °FPartly sunny.8 mph69%30.00 "Hg19 mi
4:00 PM72 °FPartly sunny.7 mph60%29.99 "Hg19 mi
3:00 PM69 °FPartly sunny.7 mph66%29.99 "Hg19 mi
2:00 PM70 °FPartly sunny.6 mph65%29.99 "Hg19 mi
1:00 PM68 °FPartly sunny.7 mph67%30.00 "Hg16 mi
12:00 PM65 °FSprinkles. Partly sunny.9 mph79%30.01 "Hg7 mi
10:00 AM65 °FPartly sunny.7 mph79%29.98 "Hg19 mi
9:00 AM63 °FPartly sunny.7 mph85%29.97 "Hg19 mi
8:00 AM62 °FScattered clouds.8 mph88%29.95 "Hg19 mi
7:00 AM60 °FScattered clouds.8 mph91%29.93 "Hg19 mi
6:00 AM61 °FPassing clouds.8 mph90%29.91 "Hg19 mi
5:00 AM61 °FOvercast.7 mph90%29.90 "Hg19 mi
4:00 AM59 °FOvercast.3 mph94%29.89 "Hg22 mi
3:00 AM59 °FOvercast.3 mph92%29.89 "Hg37 mi
Weather by CustomWeather, © 2014

See weather overviewHow to use our weather pages